Location: Congrier
(47.8099°N, 1.1170°W)
Time: 23:49:14
(UTC+00:00)

Cosmos 1655 Rocket - Pass Details

Date: 28 January 2023
Orbit: 970 x 1006 km, 83.0° (Epoch: 01 April)

Event Time Altitude Azimuth Distance (km) Brightness Sun altitude
Rises 18:00:58 0° 353° (N) 3,711 7.0 -10.6°
Reaches altitude 10° 18:03:33 10° 357° (N) 2,753 6.3 -11.1°
Maximum altitude 18:09:48 61° 77° (ENE) 1,102 4.0 -12.1°
Drops below altitude 10° 18:15:56 10° 158° (SSE) 2,714 6.2 -13.1°
Sets 18:18:28 0° 162° (SSE) 3,654 6.9 -13.5°
